sat.trackr.live / text

‹ back to catalog

STARLINK-4158

NORAD 53027 · 2022-076AT

PAYLOAD ACTIVE UNKNOWN

§ Identity

Operator
Country
US
Launch date
2022-07-07
Launch site
AFETR
Launch vehicle
Mass (kg)
RCS (m²)

Purposes: comms

External: N2YO · Heavens-Above · Gunter

§ Orbital elements

Epoch: 2026-05-25T03:40:56.269920Z

Period
95.44 min
Inclination
53.2136°
Eccentricity
0.0001468
Mean motion
15.08810879 rev/d
Perigee alt
538.8 km
Apogee alt
540.8 km
Semi-major
6,918.0 km
B*
3.6091e-4
RAAN
100.8595°
Arg perigee
84.9462°
Mean anomaly
275.1698°
Rev number
21,453

§ Raw data

STARLINK-41581 53027U 22076AT  26145.15342905  .00005456  00000+0  36091-3 0  99922 53027  53.2136 100.8595 0001468  84.9462 275.1698 15.08810879214539

JSON: /api/v1/satellites/53027 · /tle

For live sub-satellite position, see the globe view (requires WebGL).

§ Visibility from observer

Set your observer location to see the next 7 days of passes ≥ 10°. The values pass through the URL so the page stays shareable.

No JS? Fill the form by hand. The geolocation button needs JavaScript.